sat.trackr.live / text

‹ back to catalog

KUIPER-00091

NORAD 64836 · 2025-151W

PAYLOAD ACTIVE UNKNOWN

§ Identity

Operator
Country
US
Launch date
2025-07-16
Launch site
AFETR
Launch vehicle
Mass (kg)
RCS (m²)

External: N2YO · Heavens-Above · Gunter

§ Orbital elements

Epoch: 2026-09-21T20:26:37.345632Z

Period
97.30 min
Inclination
51.9012°
Eccentricity
0.0001081
Mean motion
14.79938635 rev/d
Perigee alt
628.8 km
Apogee alt
630.3 km
Semi-major
7,007.7 km
B*
2.3720e-4
RAAN
135.6903°
Arg perigee
103.3593°
Mean anomaly
256.7490°
Rev number
6,459

§ Raw data

KUIPER-000911 64836U 25151W   26264.85182113  .00001588  00000+0  23720-3 0  99982 64836  51.9012 135.6903 0001081 103.3593 256.7490 14.79938635 64590

JSON: /api/v1/satellites/64836 · /tle

For live sub-satellite position, see the globe view (requires WebGL).

§ Visibility from observer

Set your observer location to see the next 7 days of passes ≥ 10°. The values pass through the URL so the page stays shareable.

No JS? Fill the form by hand. The geolocation button needs JavaScript.